This demonstration page uses our WeatherBlox Daily Observations layout. Learn more.

Left ArrowRight Arrow

Hourly Observations for March 12, 2017

Temp ( °F °C ) Dew Point ( °F °C ) Humidity (%) Winds ( mph kmh ) Pressure ( in mb ) Visibility ( mi km ) Precip ( " mm )
12:53 am 00:53 Clear 26 -3.3 14 -10 60 60 NNW 7 11 30.46 1031 10 16.0934 N/A
1:53 am 01:53 Cloudy 26 -3.3 12 -11.1 55 55 NNW 6 9 30.46 1032 10 16.0934 N/A
3:53 am 03:53 Cloudy 25 -3.9 13 -10.6 60 60 NNW 5 7 30.45 1031 10 16.0934 N/A
4:53 am 04:53 Clear 23 -5 12 -11.1 63 63 NNW 3 6 30.44 1031 10 16.0934 N/A
5:53 am 05:53 Clear 21 -6.1 13 -10.6 71 71 NW 6 9 30.45 1031 10 16.0934 N/A
6:53 am 06:53 Clear 21 -6.1 13 -10.6 71 71 NNW 5 7 30.46 1032 10 16.0934 N/A
7:53 am 07:53 Clear 21 -6.1 13 -10.6 71 71 N 5 7 30.46 1032 10 16.0934 N/A
8:53 am 08:53 Sunny 24 -4.4 14 -10 65 65 N 7 11 30.47 1032 10 16.0934 N/A
9:53 am 09:53 Sunny 26 -3.3 14 -10 60 60 NNE 10 17 30.5 1033 10 16.0934 N/A
10:53 am 10:53 Sunny 27 -2.8 15 -9.4 61 61 undefined N/A 30.49 1033 10 16.0934 N/A
11:53 am 11:53 Sunny 30 -1.1 15 -9.4 54 54 VRB 3 6 30.51 1033 10 16.0934 N/A
12:53 pm 12:53 Sunny 32 undefined 15 -9.4 50 50 VRB 6 9 30.51 1033 10 16.0934 N/A
1:53 pm 13:53 Sunny 34 1.1 16 -8.9 48 48 VRB 5 7 30.45 1031 10 16.0934 N/A
2:53 pm 14:53 Sunny 34 1.1 13 -10.6 42 42 undefined N/A 30.45 1031 10 16.0934 N/A
3:53 pm 15:53 Sunny 37 2.8 14 -10 39 39 VRB 3 6 30.44 1031 10 16.0934 N/A
4:53 pm 16:53 Sunny 38 3.3 13 -10.6 36 36 NE 6 9 30.42 1030 10 16.0934 N/A
5:53 pm 17:53 Sunny 37 2.8 12 -11.1 36 36 NNE 3 6 30.41 1030 10 16.0934 N/A
6:53 pm 18:53 Sunny 37 2.8 13 -10.6 37 37 NNE 3 6 30.4 1030 10 16.0934 N/A
7:53 pm 19:53 Clear 32 undefined 16 -8.9 52 52 ENE 3 6 30.39 1029 10 16.0934 N/A
8:53 pm 20:53 Clear 30 -1.1 16 -8.9 56 56 NE 5 7 30.38 1029 10 16.0934 N/A
9:53 pm 21:53 Clear 32 undefined 14 -10 47 47 ENE 7 11 30.37 1029 10 16.0934 N/A
10:53 pm 22:53 Clear 32 undefined 16 -8.9 52 52 ENE 6 9 30.35 1028 10 16.0934 N/A
11:53 pm 23:53 Clear 31 -0.6 17 -8.3 56 56 E 10 17 30.33 1027 10 16.0934 N/A

Powered by AerisWeather